Terminal Aerodrome Forecast
Issued by NWS Greer, SC

Home | Current Version | Previous Version | Text Only | Print | Product List | Glossary On
Versions: 1 2 3 4 5 6 7 8 9 10 11 12 13 14 15 16 17 18 19 20 21 22 23 24 25 26 27 28 29 30 31 32
000
FTUS42 KGSP 230209 AAA
TAFCLT
TAF AMD
KCLT 230209Z 2302/2406 11007KT P6SM SCT050 OVC100
     FM230400 10011KT P6SM -RA OVC050
     FM230700 08012G22KT P6SM -RA OVC020
     FM231200 08015G25KT 4SM -RA BR OVC007
     FM231800 07015G23KT 2SM RA BR OVC005
     FM240000 07017G25KT 2SM RA BR OVC005=

USA.gov is the U.S. government's official web portal to all federal, state and local government web resources and services.